| time (UTC) | temp F | wind direction | speed knots | gust knots | rain 1hr in | rain 24hr in | rain mn in | humidity % | barometer mb |
| 20260906132008 | 80 | 95 | 0.0 | 1.7 | 0.00 | 0.00 | 0.00 | 96 | 1012.0 |
| 20260906131513 | 79 | 171 | 0.0 | 1.7 | 0.00 | 0.00 | 0.00 | 96 | 1012.2 |
| 20260906131007 | 79 | 263 | 0.0 | 2.6 | 0.00 | 0.00 | 0.00 | 96 | 1012.2 |
| 20260906130514 | 78 | 336 | 0.9 | 3.5 | 0.00 | 0.00 | 0.00 | 96 | 1012.3 |
| 20260906130022 | 78 | 241 | 1.7 | 3.5 | 0.00 | 0.00 | 0.00 | 96 | 1012.4 |
| 20260906125511 | 78 | 158 | 0.9 | 2.6 | 0.00 | 0.00 | 0.00 | 96 | 1012.5 |
| 20260906125016 | 77 | 245 | 0.0 | 2.6 | 0.00 | 0.00 | 0.00 | 96 | 1012.5 |
| 20260906124539 | 77 | 331 | 0.9 | 2.6 | 0.00 | 0.00 | 0.00 | 96 | 1012.5 |
| 20260906124014 | 77 | 221 | 0.0 | 1.7 | 0.00 | 0.00 | 0.00 | 96 | 1012.5 |
| 20260906123505 | 76 | 304 | 0.0 | 1.7 | 0.00 | 0.00 | 0.00 | 96 | 1012.4 |
| 20260906123005 | 75 | 265 | 0.0 | 1.7 | 0.00 | 0.00 | 0.00 | 96 | 1012.4 |
| 20260906122506 | 75 | 265 | 0.0 | 1.7 | 0.00 | 0.00 | 0.00 | 96 | 1012.3 |
| 20260906122009 | 74 | 240 | 0.0 | 1.7 | 0.00 | 0.00 | 0.00 | 95 | 1012.3 |
| 20260906121516 | 74 | 235 | 0.0 | 1.7 | 0.00 | 0.00 | 0.00 | 95 | 1012.2 |
| 20260906121012 | 74 | 235 | 0.0 | 1.7 | 0.00 | 0.00 | 0.00 | 95 | 1012.1 |
| 20260906120508 | 73 | 235 | 0.0 | 0.0 | 0.00 | 0.00 | 0.00 | 95 | 1012.1 |
| 20260906120016 | 73 | 235 | 0.0 | 0.0 | 0.00 | 0.00 | 0.00 | 95 | 1012.0 |
| 20260906115514 | 73 | 235 | 0.0 | 0.0 | 0.00 | 0.00 | 0.00 | 95 | 1011.7 |
| 20260906115014 | 73 | 235 | 0.0 | 0.0 | 0.00 | 0.00 | 0.00 | 95 | 1011.7 |
| 20260906114524 | 73 | 235 | 0.0 | 0.0 | 0.00 | 0.00 | 0.00 | 95 | 1011.9 |
| 20260906114016 | 73 | 235 | 0.0 | 0.0 | 0.00 | 0.00 | 0.00 | 95 | 1011.9 |
| 20260906113514 | 73 | 235 | 0.0 | 0.0 | 0.00 | 0.00 | 0.00 | 95 | 1011.7 |
| 20260906113029 | 73 | 235 | 0.0 | 1.7 | 0.00 | 0.00 | 0.00 | 95 | 1011.6 |
| 20260906112507 | 73 | 235 | 0.0 | 1.7 | 0.00 | 0.00 | 0.00 | 95 | 1011.7 |
| 20260906112007 | 73 | 235 | 0.0 | 1.7 | 0.00 | 0.00 | 0.00 | 94 | 1011.6 |
| 20260906111519 | 73 | 235 | 0.0 | 0.9 | 0.00 | 0.00 | 0.00 | 94 | 1011.5 |
| 20260906111008 | 73 | 235 | 0.0 | 0.0 | 0.00 | 0.00 | 0.00 | 94 | 1011.2 |
| 20260906110513 | 73 | 235 | 0.0 | 1.7 | 0.00 | 0.00 | 0.00 | 94 | 1011.2 |
| 20260906110016 | 73 | 235 | 0.0 | 1.7 | 0.00 | 0.00 | 0.00 | 94 | 1011.1 |
| 20260906105510 | 73 | 235 | 0.0 | 0.0 | 0.00 | 0.00 | 0.00 | 94 | 1011.2 |
| 20260906105011 | 73 | 235 | 0.0 | 0.0 | 0.00 | 0.00 | 0.00 | 94 | 1011.3 |
| 20260906104518 | 73 | 235 | 0.0 | 0.0 | 0.00 | 0.00 | 0.00 | 94 | 1011.0 |
| 20260906104012 | 73 | 235 | 0.0 | 0.0 | 0.00 | 0.00 | 0.00 | 94 | 1011.0 |
| 20260906103513 | 73 | 235 | 0.0 | 0.0 | 0.00 | 0.00 | 0.00 | 94 | 1011.2 |
| 20260906103026 | 73 | 235 | 0.0 | 0.0 | 0.00 | 0.00 | 0.00 | 94 | 1011.2 |
| 20260906102520 | 73 | 235 | 0.0 | 0.0 | 0.00 | 0.00 | 0.00 | 94 | 1011.1 |
| 20260906102017 | 73 | 235 | 0.0 | 0.0 | 0.00 | 0.00 | 0.00 | 94 | 1011.0 |
| 20260906101508 | 73 | 235 | 0.0 | 0.0 | 0.00 | 0.00 | 0.00 | 94 | 1011.1 |
| 20260906101008 | 73 | 235 | 0.0 | 1.7 | 0.00 | 0.00 | 0.00 | 94 | 1011.2 |
| 20260906100511 | 73 | 235 | 0.0 | 1.7 | 0.00 | 0.00 | 0.00 | 94 | 1010.8 |
| 20260906100013 | 73 | 235 | 0.0 | 0.9 | 0.00 | 0.00 | 0.00 | 94 | 1010.7 |
| 20260906095511 | 73 | 235 | 0.0 | 0.0 | 0.00 | 0.00 | 0.00 | 94 | 1010.8 |
| 20260906095012 | 73 | 235 | 0.0 | 0.0 | 0.00 | 0.00 | 0.00 | 94 | 1010.8 |
| 20260906094517 | 74 | 235 | 0.0 | 0.0 | 0.00 | 0.00 | 0.00 | 94 | 1010.6 |
| 20260906094016 | 74 | 235 | 0.0 | 0.0 | 0.00 | 0.00 | 0.00 | 94 | 1010.5 |
| 20260906093514 | 74 | 235 | 0.0 | 0.0 | 0.00 | 0.00 | 0.00 | 94 | 1010.7 |
| 20260906093026 | 74 | 235 | 0.0 | 0.0 | 0.00 | 0.00 | 0.00 | 94 | 1010.8 |
| 20260906092516 | 74 | 235 | 0.0 | 0.0 | 0.00 | 0.00 | 0.00 | 94 | 1011.0 |
| 20260906092014 | 74 | 235 | 0.0 | 0.0 | 0.00 | 0.00 | 0.00 | 94 | 1010.8 |
| 20260906091533 | 74 | 235 | 0.0 | 0.0 | 0.00 | 0.00 | 0.00 | 94 | 1010.8 |
| 20260906091014 | 74 | 235 | 0.0 | 0.0 | 0.00 | 0.00 | 0.00 | 94 | 1010.9 |
| 20260906090519 | 74 | 235 | 0.0 | 0.0 | 0.00 | 0.00 | 0.00 | 94 | 1010.9 |
| 20260906090012 | 74 | 235 | 0.0 | 0.0 | 0.00 | 0.00 | 0.00 | 94 | 1010.7 |
| 20260906085513 | 74 | 235 | 0.0 | 0.0 | 0.00 | 0.00 | 0.00 | 94 | 1010.6 |
| 20260906085013 | 74 | 235 | 0.0 | 0.0 | 0.00 | 0.00 | 0.00 | 94 | 1010.7 |
| 20260906084519 | 74 | 235 | 0.0 | 0.0 | 0.00 | 0.00 | 0.00 | 94 | 1010.7 |
| 20260906084017 | 74 | 235 | 0.0 | 0.0 | 0.00 | 0.00 | 0.00 | 94 | 1010.5 |
| 20260906083514 | 74 | 235 | 0.0 | 0.0 | 0.00 | 0.00 | 0.00 | 94 | 1010.4 |
| 20260906083033 | 74 | 235 | 0.0 | 1.7 | 0.00 | 0.00 | 0.00 | 94 | 1010.5 |
| 20260906082514 | 74 | 235 | 0.0 | 1.7 | 0.00 | 0.00 | 0.00 | 94 | 1010.6 |
| 20260906082017 | 74 | 235 | 0.0 | 1.7 | 0.00 | 0.00 | 0.00 | 94 | 1010.3 |
| 20260906081532 | 75 | 235 | 0.0 | 0.0 | 0.00 | 0.00 | 0.00 | 94 | 1010.4 |
| 20260906081016 | 75 | 235 | 0.0 | 0.0 | 0.00 | 0.00 | 0.00 | 94 | 1010.3 |
| 20260906080518 | 75 | 235 | 0.0 | 0.0 | 0.00 | 0.00 | 0.00 | 94 | 1010.3 |
| 20260906080033 | 75 | 235 | 0.0 | 0.0 | 0.00 | 0.00 | 0.00 | 94 | 1010.6 |
| 20260906075518 | 75 | 235 | 0.0 | 0.0 | 0.00 | 0.00 | 0.00 | 93 | 1010.4 |
| 20260906075010 | 75 | 235 | 0.0 | 0.0 | 0.00 | 0.00 | 0.00 | 94 | 1010.3 |
| 20260906074516 | 75 | 235 | 0.0 | 0.0 | 0.00 | 0.00 | 0.00 | 94 | 1010.3 |
| 20260906074012 | 75 | 235 | 0.0 | 0.0 | 0.00 | 0.00 | 0.00 | 94 | 1010.6 |
| 20260906073515 | 75 | 235 | 0.0 | 0.0 | 0.00 | 0.00 | 0.00 | 94 | 1010.8 |
| 20260906073023 | 75 | 235 | 0.0 | 0.0 | 0.00 | 0.00 | 0.00 | 93 | 1010.8 |
| 20260906072514 | 75 | 235 | 0.0 | 0.0 | 0.00 | 0.00 | 0.00 | 93 | 1010.4 |
| 20260906072015 | 75 | 235 | 0.0 | 0.0 | 0.00 | 0.00 | 0.00 | 93 | 1010.5 |
| 20260906071527 | 75 | 235 | 0.0 | 0.0 | 0.00 | 0.00 | 0.00 | 93 | 1010.8 |
| 20260906071018 | 75 | 235 | 0.0 | 0.0 | 0.00 | 0.00 | 0.00 | 93 | 1010.9 |
| 20260906070520 | 76 | 235 | 0.0 | 1.7 | 0.00 | 0.00 | 0.00 | 93 | 1010.9 |
| 20260906070032 | 76 | 235 | 0.0 | 1.7 | 0.00 | 0.00 | 0.00 | 93 | 1010.7 |
| 20260906065518 | 76 | 235 | 0.0 | 0.0 | 0.00 | 0.00 | 0.00 | 93 | 1010.5 |
| 20260906065014 | 76 | 235 | 0.0 | 0.0 | 0.00 | 0.00 | 0.00 | 93 | 1010.7 |
| 20260906064529 | 76 | 235 | 0.0 | 0.0 | 0.00 | 0.00 | 0.00 | 93 | 1010.7 |
| 20260906064011 | 76 | 235 | 0.0 | 0.0 | 0.00 | 0.00 | 0.00 | 93 | 1010.7 |
| 20260906063512 | 76 | 235 | 0.0 | 0.0 | 0.00 | 0.00 | 0.00 | 93 | 1010.8 |
| 20260906063021 | 76 | 235 | 0.0 | 1.7 | 0.00 | 0.00 | 0.00 | 93 | 1010.9 |
| 20260906062515 | 76 | 235 | 0.0 | 1.7 | 0.00 | 0.00 | 0.00 | 93 | 1010.9 |
| 20260906062012 | 76 | 235 | 0.0 | 1.7 | 0.00 | 0.00 | 0.00 | 93 | 1011.0 |
| 20260906061526 | 76 | 235 | 0.0 | 0.0 | 0.00 | 0.00 | 0.00 | 93 | 1011.2 |
| 20260906061016 | 76 | 235 | 0.0 | 0.0 | 0.00 | 0.00 | 0.00 | 93 | 1011.1 |
| 20260906060516 | 76 | 235 | 0.0 | 0.0 | 0.00 | 0.00 | 0.00 | 93 | 1011.1 |
| 20260906060029 | 76 | 235 | 0.0 | 0.0 | 0.00 | 0.00 | 0.00 | 93 | 1011.1 |
| 20260906055517 | 76 | 235 | 0.0 | 0.0 | 0.00 | 0.00 | 0.00 | 93 | 1011.2 |
| 20260906055017 | 76 | 235 | 0.0 | 1.7 | 0.00 | 0.00 | 0.00 | 93 | 1011.2 |
| 20260906054540 | 77 | 235 | 0.0 | 1.7 | 0.00 | 0.00 | 0.00 | 93 | 1011.2 |
| 20260906054020 | 77 | 235 | 0.0 | 0.0 | 0.00 | 0.00 | 0.00 | 93 | 1011.2 |
| 20260906053521 | 77 | 235 | 0.0 | 0.0 | 0.00 | 0.00 | 0.00 | 92 | 1011.1 |
| 20260906053016 | 77 | 235 | 0.0 | 0.0 | 0.00 | 0.00 | 0.00 | 92 | 1011.2 |
| 20260906052512 | 77 | 235 | 0.0 | 1.7 | 0.00 | 0.00 | 0.00 | 92 | 1011.2 |
| 20260906052014 | 77 | 235 | 0.0 | 1.7 | 0.00 | 0.00 | 0.00 | 92 | 1011.3 |
| 20260906051528 | 77 | 235 | 0.0 | 0.0 | 0.00 | 0.00 | 0.00 | 92 | 1011.3 |
| 20260906051004 | 77 | 235 | 0.0 | 0.0 | 0.00 | 0.00 | 0.00 | 92 | 1011.1 |
| 20260906050505 | 77 | 235 | 0.0 | 0.0 | 0.00 | 0.00 | 0.00 | 92 | 1011.2 |
| 20260906050007 | 77 | 235 | 0.0 | 0.0 | 0.00 | 0.00 | 0.00 | 92 | 1011.2 |
| 20260906045504 | 77 | 235 | 0.0 | 0.0 | 0.00 | 0.00 | 0.00 | 92 | 1011.2 |
| 20260906045008 | 77 | 235 | 0.0 | 0.0 | 0.00 | 0.00 | 0.00 | 92 | 1011.2 |
| 20260906044507 | 77 | 235 | 0.0 | 0.0 | 0.00 | 0.00 | 0.00 | 92 | 1011.3 |
| 20260906044010 | 78 | 235 | 0.0 | 0.0 | 0.00 | 0.00 | 0.00 | 92 | 1011.3 |
| 20260906043510 | 78 | 235 | 0.0 | 0.9 | 0.00 | 0.00 | 0.00 | 92 | 1011.3 |
| 20260906043023 | 78 | 235 | 0.0 | 0.9 | 0.00 | 0.00 | 0.00 | 92 | 1011.3 |
| 20260906042513 | 78 | 235 | 0.0 | 0.0 | 0.00 | 0.00 | 0.00 | 92 | 1011.2 |
| 20260906042012 | 78 | 235 | 0.0 | 0.0 | 0.00 | 0.00 | 0.00 | 91 | 1011.2 |
| 20260906041522 | 78 | 235 | 0.0 | 0.0 | 0.00 | 0.00 | 0.00 | 91 | 1011.3 |
| 20260906041016 | 78 | 235 | 0.0 | 0.0 | 0.00 | 0.00 | 0.00 | 91 | 1011.5 |
| 20260906040513 | 78 | 235 | 0.0 | 1.7 | 0.00 | 0.00 | 0.00 | 91 | 1011.3 |
| 20260906040008 | 78 | 235 | 0.0 | 1.7 | 0.00 | 0.00 | 0.00 | 91 | 1011.5 |
| 20260906035504 | 78 | 235 | 0.0 | 1.7 | 0.00 | 0.00 | 0.00 | 91 | 1011.5 |
| 20260906035004 | 78 | 235 | 0.0 | 1.7 | 0.00 | 0.00 | 0.00 | 91 | 1011.6 |
| 20260906034508 | 78 | 240 | 0.0 | 1.7 | 0.00 | 0.00 | 0.00 | 91 | 1011.7 |
| 20260906034007 | 79 | 206 | 0.0 | 1.7 | 0.00 | 0.00 | 0.00 | 91 | 1011.8 |
| 20260906033507 | 79 | 260 | 0.0 | 1.7 | 0.00 | 0.00 | 0.00 | 91 | 1011.9 |
| 20260906033023 | 79 | 279 | 0.0 | 1.7 | 0.00 | 0.00 | 0.00 | 91 | 1012.1 |
| 20260906032512 | 79 | 279 | 0.0 | 1.7 | 0.00 | 0.00 | 0.00 | 91 | 1012.1 |
| 20260906032010 | 79 | 279 | 0.0 | 1.7 | 0.00 | 0.00 | 0.00 | 91 | 1012.1 |
| 20260906031520 | 79 | 279 | 0.0 | 0.0 | 0.00 | 0.00 | 0.00 | 91 | 1012.2 |
| 20260906031015 | 79 | 279 | 0.0 | 0.0 | 0.00 | 0.00 | 0.00 | 91 | 1012.3 |
| 20260906030514 | 79 | 279 | 0.0 | 0.0 | 0.00 | 0.00 | 0.00 | 91 | 1012.3 |
| 20260906030026 | 79 | 279 | 0.0 | 0.0 | 0.00 | 0.00 | 0.00 | 91 | 1012.4 |
| 20260906025516 | 79 | 279 | 0.0 | 0.0 | 0.00 | 0.00 | 0.00 | 91 | 1012.4 |
| 20260906025004 | 79 | 279 | 0.0 | 0.0 | 0.00 | 0.00 | 0.00 | 91 | 1012.4 |
| 20260906024506 | 79 | 279 | 0.0 | 0.0 | 0.00 | 0.00 | 0.00 | 91 | 1012.4 |
| 20260906024004 | 79 | 279 | 0.0 | 1.7 | 0.00 | 0.00 | 0.00 | 91 | 1012.4 |
| 20260906023506 | 79 | 279 | 0.0 | 1.7 | 0.00 | 0.00 | 0.00 | 91 | 1012.3 |
| 20260906023012 | 79 | 245 | 0.0 | 1.7 | 0.00 | 0.00 | 0.00 | 91 | 1012.3 |
| 20260906022511 | 79 | 245 | 0.0 | 1.7 | 0.00 | 0.00 | 0.00 | 90 | 1012.3 |
| 20260906022009 | 80 | 289 | 0.0 | 1.7 | 0.00 | 0.00 | 0.00 | 90 | 1012.1 |
| 20260906021521 | 80 | 322 | 0.0 | 0.0 | 0.00 | 0.00 | 0.00 | 90 | 1012.0 |
| 20260906021017 | 80 | 230 | 0.0 | 0.0 | 0.00 | 0.00 | 0.00 | 89 | 1012.0 |
| 20260906020520 | 80 | 203 | 0.0 | 0.0 | 0.00 | 0.00 | 0.00 | 89 | 1011.8 |
| 20260906020028 | 80 | 203 | 0.0 | 0.0 | 0.00 | 0.00 | 0.00 | 89 | 1011.9 |
| 20260906015516 | 80 | 203 | 0.0 | 0.0 | 0.00 | 0.00 | 0.00 | 89 | 1011.6 |
| 20260906015016 | 80 | 272 | 0.0 | 0.0 | 0.00 | 0.00 | 0.00 | 88 | 1011.6 |
| 20260906014530 | 80 | 271 | 0.0 | 0.0 | 0.00 | 0.00 | 0.00 | 88 | 1011.6 |
| 20260906014006 | 80 | 271 | 0.0 | 0.0 | 0.00 | 0.00 | 0.00 | 88 | 1011.3 |
| 20260906013505 | 81 | 271 | 0.0 | 0.0 | 0.00 | 0.00 | 0.00 | 88 | 1011.2 |
| 20260906013007 | 81 | 271 | 0.0 | 0.0 | 0.00 | 0.00 | 0.00 | 87 | 1011.3 |
| 20260906012507 | 81 | 271 | 0.0 | 0.0 | 0.00 | 0.00 | 0.00 | 87 | 1011.2 |
| 20260906012010 | 81 | 242 | 0.0 | 0.0 | 0.00 | 0.00 | 0.00 | 87 | 1011.0 |
| 20260906011515 | 81 | 242 | 0.0 | 0.0 | 0.00 | 0.00 | 0.00 | 87 | 1010.9 |
| 20260906011010 | 81 | 242 | 0.0 | 0.0 | 0.00 | 0.00 | 0.00 | 86 | 1010.9 |
| 20260906010512 | 81 | 242 | 0.0 | 0.0 | 0.00 | 0.00 | 0.00 | 86 | 1010.9 |
| 20260906010026 | 82 | 241 | 0.0 | 0.0 | 0.00 | 0.00 | 0.00 | 85 | 1010.8 |
| 20260906005514 | 82 | 241 | 0.0 | 0.0 | 0.00 | 0.00 | 0.00 | 85 | 1010.7 |
| 20260906005014 | 82 | 241 | 0.0 | 0.0 | 0.00 | 0.00 | 0.00 | 85 | 1010.7 |
| 20260906004528 | 82 | 241 | 0.0 | 0.0 | 0.00 | 0.00 | 0.00 | 85 | 1010.6 |
| 20260906004018 | 83 | 241 | 0.0 | 0.0 | 0.00 | 0.00 | 0.00 | 84 | 1010.5 |
| 20260906003517 | 83 | 241 | 0.0 | 0.0 | 0.00 | 0.00 | 0.00 | 84 | 1010.4 |
| 20260906003009 | 83 | 241 | 0.0 | 0.0 | 0.00 | 0.00 | 0.00 | 83 | 1010.4 |
| 20260906002506 | 83 | 238 | 0.0 | 0.0 | 0.00 | 0.00 | 0.00 | 83 | 1010.4 |
| 20260906002009 | 84 | 222 | 0.0 | 0.0 | 0.00 | 0.00 | 0.00 | 82 | 1010.4 |
| 20260906001516 | 84 | 222 | 0.0 | 0.0 | 0.00 | 0.00 | 0.00 | 82 | 1010.3 |
| 20260906001008 | 84 | 222 | 0.0 | 0.0 | 0.00 | 0.00 | 0.00 | 80 | 1010.2 |
| 20260906000512 | 85 | 222 | 0.0 | 0.0 | 0.00 | 0.00 | 0.00 | 80 | 1010.2 |
| 20260906000036 | 85 | 222 | 0.0 | 0.0 | 0.00 | 0.00 | 0.00 | 80 | 1010.2 |
| 20260905235512 | 85 | 222 | 0.0 | 0.0 | 0.00 | 0.00 | 0.00 | 79 | 1010.1 |
| 20260905235016 | 85 | 222 | 0.0 | 1.7 | 0.00 | 0.00 | 0.00 | 78 | 1010.0 |
| 20260905234526 | 86 | 222 | 0.0 | 1.7 | 0.00 | 0.00 | 0.00 | 78 | 1010.1 |
| 20260905234014 | 86 | 222 | 0.0 | 1.7 | 0.00 | 0.00 | 0.00 | 77 | 1010.0 |
| 20260905233517 | 86 | 205 | 0.0 | 1.7 | 0.00 | 0.00 | 0.00 | 76 | 1009.9 |
| 20260905233029 | 86 | 245 | 0.9 | 3.5 | 0.00 | 0.01 | 0.00 | 75 | 1009.8 |
| 20260905232517 | 87 | 211 | 0.0 | 3.5 | 0.00 | 0.01 | 0.00 | 74 | 1009.9 |
| 20260905232019 | 87 | 213 | 0.0 | 4.3 | 0.00 | 0.01 | 0.00 | 74 | 1009.9 |
| 20260905231510 | 87 | 179 | 0.9 | 4.3 | 0.00 | 0.01 | 0.00 | 73 | 1010.0 |
| 20260905231008 | 88 | 267 | 1.7 | 3.5 | 0.00 | 0.01 | 0.00 | 72 | 1010.1 |
| 20260905230512 | 88 | 271 | 0.9 | 3.5 | 0.00 | 0.02 | 0.00 | 72 | 1010.2 |
| 20260905230018 | 89 | 219 | 0.9 | 3.5 | 0.00 | 0.02 | 0.00 | 72 | 1010.1 |
| 20260905225516 | 89 | 239 | 0.9 | 7.0 | 0.00 | 0.03 | 0.00 | 71 | 1010.2 |
| 20260905225012 | 90 | 229 | 0.9 | 7.0 | 0.00 | 0.03 | 0.00 | 70 | 1010.3 |
| 20260905224524 | 90 | 248 | 0.9 | 5.2 | 0.00 | 0.04 | 0.00 | 69 | 1010.3 |
| 20260905224016 | 91 | 240 | 1.7 | 5.2 | 0.00 | 0.04 | 0.00 | 66 | 1010.3 |
| 20260905223514 | 92 | 215 | 1.7 | 5.2 | 0.00 | 0.05 | 0.00 | 66 | 1010.5 |
| 20260905223031 | 93 | 231 | 1.7 | 5.2 | 0.00 | 0.06 | 0.00 | 65 | 1010.6 |
| 20260905222517 | 93 | 199 | 0.0 | 3.5 | 0.00 | 0.06 | 0.00 | 64 | 1010.5 |
| 20260905222014 | 93 | 262 | 0.0 | 5.2 | 0.00 | 0.07 | 0.00 | 64 | 1010.5 |
| 20260905221530 | 93 | 233 | 1.7 | 5.2 | 0.00 | 0.08 | 0.00 | 61 | 1010.6 |
| 20260905221016 | 93 | 232 | 0.0 | 1.7 | 0.00 | 0.08 | 0.00 | 63 | 1010.6 |
| 20260905220513 | 93 | 211 | 0.0 | 2.6 | 0.00 | 0.09 | 0.00 | 61 | 1010.6 |
| 20260905220014 | 93 | 300 | 0.0 | 6.1 | 0.00 | 0.10 | 0.00 | 61 | 1010.8 |
| 20260905215510 | 94 | 222 | 0.9 | 6.1 | 0.00 | 0.10 | 0.00 | 62 | 1010.9 |
| 20260905215014 | 94 | 265 | 0.0 | 2.6 | 0.00 | 0.11 | 0.00 | 62 | 1010.8 |
| 20260905214525 | 94 | 205 | 0.9 | 2.6 | 0.00 | 0.12 | 0.00 | 60 | 1010.8 |
| 20260905214014 | 94 | 305 | 0.9 | 1.7 | 0.00 | 0.12 | 0.00 | 60 | 1010.9 |
| 20260905213517 | 94 | 250 | 0.9 | 4.3 | 0.00 | 0.13 | 0.00 | 59 | 1011.0 |
| 20260905213031 | 94 | 229 | 0.9 | 4.3 | 0.00 | 0.14 | 0.00 | 60 | 1011.1 |
| 20260905212516 | 94 | 252 | 0.9 | 3.5 | 0.00 | 0.15 | 0.00 | 60 | 1011.0 |
| 20260905212017 | 94 | 213 | 0.9 | 3.5 | 0.00 | 0.15 | 0.00 | 62 | 1010.9 |
| 20260905211539 | 94 | 252 | 0.9 | 1.7 | 0.00 | 0.15 | 0.00 | 62 | 1010.7 |
| 20260905211016 | 93 | 263 | 0.9 | 3.5 | 0.00 | 0.15 | 0.00 | 61 | 1010.7 |
| 20260905210518 | 93 | 40 | 2.6 | 3.5 | 0.00 | 0.16 | 0.00 | 61 | 1010.7 |
| 20260905210034 | 93 | 234 | 0.9 | 4.3 | 0.00 | 0.16 | 0.00 | 63 | 1010.8 |
| 20260905205508 | 93 | 221 | 2.6 | 4.3 | 0.00 | 0.17 | 0.00 | 62 | 1010.9 |
| 20260905205012 | 94 | 259 | 1.7 | 2.6 | 0.00 | 0.18 | 0.00 | 60 | 1010.8 |
| 20260905204522 | 94 | 254 | 0.9 | 4.3 | 0.00 | 0.19 | 0.00 | 62 | 1010.8 |
| 20260905204012 | 94 | 274 | 0.9 | 4.3 | 0.00 | 0.21 | 0.00 | 61 | 1010.9 |
| 20260905203514 | 94 | 98 | 0.0 | 2.6 | 0.00 | 0.22 | 0.00 | 62 | 1011.0 |
| 20260905203005 | 94 | 267 | 0.0 | 2.6 | 0.00 | 0.25 | 0.00 | 60 | 1011.1 |
| 20260905202508 | 94 | 227 | 0.0 | 1.7 | 0.00 | 0.34 | 0.00 | 61 | 1011.0 |
| 20260905202017 | 93 | 165 | 0.9 | 2.6 | 0.00 | 0.52 | 0.00 | 63 | 1011.0 |
| 20260905201510 | 93 | 323 | 0.9 | 5.2 | 0.00 | 0.84 | 0.00 | 62 | 1011.1 |
| 20260905201018 | 93 | 346 | 0.9 | 5.2 | 0.00 | 1.21 | 0.00 | 62 | 1011.1 |
| 20260905200506 | 93 | 271 | 1.7 | 5.2 | 0.00 | 1.49 | 0.00 | 62 | 1011.2 |
| 20260905200026 | 93 | 313 | 1.7 | 5.2 | 0.00 | 1.69 | 0.00 | 62 | 1011.2 |
| 20260905195510 | 93 | 252 | 0.0 | 5.2 | 0.00 | 1.84 | 0.00 | 63 | 1011.2 |
| 20260905195012 | 93 | 155 | 0.0 | 2.6 | 0.00 | 1.84 | 0.00 | 63 | 1011.2 |
| 20260905194516 | 93 | 281 | 0.9 | 2.6 | 0.00 | 1.84 | 0.00 | 62 | 1011.3 |
| 20260905194012 | 93 | 171 | 0.9 | 5.2 | 0.00 | 1.84 | 0.00 | 64 | 1011.4 |
| 20260905193515 | 92 | 285 | 2.6 | 5.2 | 0.00 | 1.84 | 0.00 | 64 | 1011.4 |
| 20260905193024 | 92 | 252 | 0.9 | 5.2 | 0.00 | 1.84 | 0.00 | 63 | 1011.6 |
| 20260905192504 | 92 | 300 | 1.7 | 5.2 | 0.00 | 1.84 | 0.00 | 63 | 1011.5 |
| 20260905192007 | 92 | 344 | 1.7 | 4.3 | 0.00 | 1.84 | 0.00 | 64 | 1011.6 |
| 20260905191505 | 92 | 123 | 0.9 | 2.6 | 0.00 | 1.84 | 0.00 | 66 | 1011.7 |
| 20260905191007 | 91 | 250 | 1.7 | 3.5 | 0.00 | 1.84 | 0.00 | 67 | 1011.7 |
| 20260905190506 | 91 | 335 | 1.7 | 3.5 | 0.00 | 1.84 | 0.00 | 66 | 1011.8 |
| 20260905190010 | 91 | 349 | 0.9 | 2.6 | 0.00 | 1.84 | 0.00 | 71 | 1012.0 |
| 20260905185508 | 91 | 51 | 0.9 | 2.6 | 0.00 | 1.84 | 0.00 | 68 | 1012.0 |
| 20260905185007 | 91 | 309 | 0.9 | 5.2 | 0.00 | 1.84 | 0.00 | 71 | 1012.0 |
| 20260905184541 | 91 | 165 | 1.7 | 5.2 | 0.00 | 1.84 | 0.00 | 68 | 1012.1 |
| 20260905184011 | 91 | 15 | 1.7 | 4.3 | 0.00 | 1.84 | 0.00 | 68 | 1012.1 |
| 20260905183511 | 90 | 341 | 2.6 | 6.1 | 0.00 | 1.84 | 0.00 | 67 | 1012.3 |
| 20260905183038 | 90 | 195 | 2.6 | 6.1 | 0.00 | 1.84 | 0.00 | 70 | 1012.4 |
| 20260905182513 | 89 | 344 | 0.9 | 3.5 | 0.00 | 1.84 | 0.00 | 68 | 1012.4 |
| 20260905182014 | 89 | 259 | 0.9 | 3.5 | 0.00 | 1.84 | 0.00 | 71 | 1012.4 |
| 20260905181507 | 89 | 294 | 0.9 | 2.6 | 0.00 | 1.84 | 0.00 | 71 | 1012.4 |
| 20260905181006 | 89 | 348 | 0.9 | 3.5 | 0.00 | 1.84 | 0.00 | 72 | 1012.6 |
| 20260905180505 | 88 | 286 | 1.7 | 3.5 | 0.00 | 1.84 | 0.00 | 71 | 1012.6 |
| 20260905180007 | 88 | 28 | 0.9 | 2.6 | 0.00 | 1.84 | 0.00 | 73 | 1012.7 |
| 20260905175506 | 89 | 236 | 0.0 | 1.7 | 0.00 | 1.84 | 0.00 | 73 | 1012.9 |
| 20260905175009 | 89 | 259 | 0.9 | 3.5 | 0.00 | 1.84 | 0.00 | 73 | 1012.9 |
| 20260905174512 | 89 | 352 | 1.7 | 3.5 | 0.00 | 1.84 | 0.00 | 73 | 1012.9 |
| 20260905174012 | 88 | 352 | 0.9 | 3.5 | 0.00 | 1.84 | 0.00 | 72 | 1012.9 |
| 20260905173512 | 88 | 329 | 1.7 | 3.5 | 0.00 | 1.84 | 0.00 | 71 | 1013.0 |
| 20260905173018 | 88 | 74 | 0.9 | 3.5 | 0.00 | 1.84 | 0.00 | 76 | 1013.1 |
| 20260905172513 | 88 | 40 | 0.9 | 3.5 | 0.00 | 1.84 | 0.00 | 75 | 1013.2 |
| 20260905172015 | 88 | 319 | 0.9 | 4.3 | 0.00 | 1.84 | 0.00 | 74 | 1013.2 |
| 20260905171527 | 88 | 257 | 1.7 | 4.3 | 0.00 | 1.84 | 0.00 | 73 | 1013.2 |
| 20260905171016 | 88 | 329 | 0.9 | 4.3 | 0.00 | 1.84 | 0.00 | 74 | 1013.3 |
| 20260905170504 | 87 | 13 | 0.9 | 2.6 | 0.00 | 1.84 | 0.00 | 73 | 1013.5 |
| 20260905170005 | 87 | 286 | 0.9 | 4.3 | 0.00 | 1.84 | 0.00 | 78 | 1013.5 |
| 20260905165506 | 86 | 297 | 1.7 | 4.3 | 0.00 | 1.84 | 0.00 | 78 | 1013.5 |
| 20260905165008 | 86 | 275 | 0.9 | 4.3 | 0.00 | 1.84 | 0.00 | 79 | 1013.6 |
| 20260905164508 | 86 | 5 | 1.7 | 3.5 | 0.00 | 1.84 | 0.00 | 78 | 1013.6 |
| 20260905164008 | 86 | 360 | 1.7 | 3.5 | 0.00 | 1.84 | 0.00 | 77 | 1013.7 |
| 20260905163512 | 86 | 146 | 0.0 | 2.6 | 0.00 | 1.84 | 0.00 | 80 | 1013.8 |
| 20260905163020 | 86 | 26 | 1.7 | 2.6 | 0.00 | 1.84 | 0.00 | 79 | 1013.8 |
| 20260905162511 | 85 | 136 | 0.0 | 2.6 | 0.00 | 1.84 | 0.00 | 80 | 1014.0 |
| 20260905162012 | 84 | 75 | 0.9 | 4.3 | 0.00 | 1.84 | 0.00 | 84 | 1014.1 |
| 20260905161526 | 84 | 360 | 1.7 | 4.3 | 0.00 | 1.84 | 0.00 | 84 | 1014.0 |
| 20260905161016 | 83 | 311 | 1.7 | 2.6 | 0.00 | 1.84 | 0.00 | 84 | 1014.2 |
| 20260905160516 | 83 | 347 | 0.9 | 2.6 | 0.00 | 1.84 | 0.00 | 84 | 1014.3 |
| 20260905160030 | 83 | 351 | 0.9 | 4.3 | 0.00 | 1.84 | 0.00 | 85 | 1014.3 |
| 20260905155504 | 82 | 78 | 0.9 | 4.3 | 0.00 | 1.84 | 0.00 | 88 | 1014.4 |
| 20260905155008 | 82 | 348 | 2.6 | 4.3 | 0.00 | 1.84 | 0.00 | 89 | 1014.4 |
| 20260905154510 | 81 | 45 | 0.9 | 2.6 | 0.00 | 1.84 | 0.00 | 92 | 1014.4 |
| 20260905154006 | 80 | 344 | 0.0 | 5.2 | 0.00 | 1.84 | 0.00 | 94 | 1014.5 |
| 20260905153509 | 80 | 270 | 1.7 | 5.2 | 0.00 | 1.84 | 0.00 | 95 | 1014.5 |
| 20260905153018 | 80 | 352 | 1.7 | 3.5 | 0.00 | 1.84 | 0.00 | 96 | 1014.5 |
| 20260905152513 | 79 | 347 | 2.6 | 3.5 | 0.00 | 1.84 | 0.00 | 96 | 1014.5 |
| 20260905152014 | 79 | 348 | 0.0 | 3.5 | 0.00 | 1.84 | 0.00 | 96 | 1014.4 |
| 20260905151526 | 78 | 165 | 0.9 | 3.5 | 0.00 | 1.84 | 0.00 | 96 | 1014.4 |
| 20260905151017 | 78 | 207 | 0.0 | 1.7 | 0.00 | 1.84 | 0.00 | 97 | 1014.5 |
| 20260905150516 | 78 | 352 | 0.0 | 1.7 | 0.00 | 1.84 | 0.00 | 97 | 1014.5 |
| 20260905150029 | 78 | 5 | 0.0 | 1.7 | 0.00 | 1.84 | 0.00 | 97 | 1014.5 |
| 20260905145516 | 78 | 268 | 0.0 | 2.6 | 0.00 | 1.84 | 0.00 | 97 | 1014.4 |
| 20260905145017 | 78 | 19 | 0.0 | 3.5 | 0.00 | 1.84 | 0.00 | 97 | 1014.5 |
| 20260905144509 | 78 | 15 | 0.0 | 3.5 | 0.00 | 1.84 | 0.00 | 97 | 1014.4 |
| 20260905144006 | 78 | 320 | 0.0 | 3.5 | 0.00 | 1.84 | 0.00 | 97 | 1014.4 |
| 20260905143512 | 77 | 360 | 0.0 | 3.5 | 0.00 | 1.84 | 0.00 | 97 | 1014.4 |
| 20260905143015 | 77 | 342 | 1.7 | 3.5 | 0.00 | 1.84 | 0.00 | 97 | 1014.5 |
| 20260905142510 | 77 | 92 | 0.0 | 2.6 | 0.00 | 1.84 | 0.00 | 97 | 1014.6 |
| 20260905142010 | 77 | 326 | 1.7 | 2.6 | 0.00 | 1.84 | 0.00 | 96 | 1014.6 |
| 20260905141521 | 77 | 325 | 0.9 | 1.7 | 0.00 | 1.84 | 0.00 | 97 | 1014.6 |
| 20260905141012 | 77 | 315 | 0.0 | 2.6 | 0.00 | 1.84 | 0.00 | 97 | 1014.6 |
| 20260905140514 | 77 | 17 | 0.0 | 2.6 | 0.00 | 1.84 | 0.00 | 96 | 1014.6 |
| 20260905140030 | 77 | 352 | 0.0 | 1.7 | 0.00 | 1.84 | 0.00 | 97 | 1014.7 |
| 20260905135516 | 76 | 26 | 0.0 | 1.7 | 0.00 | 1.84 | 0.00 | 96 | 1014.6 |
| 20260905135020 | 76 | 5 | 0.0 | 0.0 | 0.00 | 1.84 | 0.00 | 96 | 1014.5 |
| 20260905134532 | 76 | 38 | 0.0 | 0.9 | 0.00 | 1.84 | 0.00 | 96 | 1014.6 |
| 20260905134016 | 76 | 352 | 0.0 | 1.7 | 0.00 | 1.84 | 0.00 | 96 | 1014.6 |
| 20260905133518 | 76 | 53 | 0.0 | 2.6 | 0.00 | 1.84 | 0.00 | 96 | 1014.5 |
| 20260905133015 | 76 | 15 | 0.9 | 2.6 | 0.00 | 1.84 | 0.00 | 97 | 1014.5 |
| 20260905132508 | 76 | 258 | 0.0 | 1.7 | 0.00 | 1.84 | 0.00 | 96 | 1014.4 |